This demonstration page uses our WeatherBlox Daily Observations layout. Learn more.

Hourly Observations for September 7, 2019

Temp ( °F °C ) Dew Point ( °F °C ) Humidity (%) Winds ( mph kmh ) Pressure ( in mb ) Visibility ( mi km ) Precip ( " mm )
12:15 am 00:15 Clear 63 17 61 16.2 95 95 Calm 30.1 1019 10 16.0934 0 0
12:35 am 00:35 Clear 62 16.5 61 16 97 97 E 3 6 30.1 1019 10 16.0934 0 0
12:55 am 00:55 Clear 62 16.5 60 15.8 96 96 E 3 6 30.1 1019 10 16.0934 0 0
1:15 am 01:15 Clear 61 16.2 61 15.9 98 98 E 5 7 30.09 1019 10 16.0934 0 0
1:35 am 01:35 Clear 62 16.7 61 16.3 98 98 ESE 6 9 30.08 1019 10 16.0934 0 0
1:55 am 01:55 Clear 63 17 62 16.4 96 96 ESE 8 13 30.07 1018 10 16.0934 0 0
2:15 am 02:15 Clear 63 17.1 62 16.5 96 96 ESE 8 13 30.06 1018 10 16.0934 0 0
2:35 am 02:35 Clear 64 17.5 61 16.3 93 93 SE 8 13 30.05 1018 10 16.0934 0 0
2:55 am 02:55 Clear 64 17.5 61 16.1 92 92 ESE 5 7 30.06 1018 10 16.0934 0 0
3:15 am 03:15 Clear 63 17 61 16 94 94 ESE 3 6 30.05 1018 10 16.0934 0 0
3:35 am 03:35 Clear 63 17.1 61 16.2 94 94 ESE 5 7 30.05 1018 10 16.0934 0 0
3:55 am 03:55 Clear 63 17.1 61 16.1 94 94 SE 5 7 30.05 1018 10 16.0934 0 0
4:15 am 04:15 Partly Cloudy 63 17 61 16.1 94 94 SE 3 6 30.05 1018 10 16.0934 0 0
4:35 am 04:35 Mostly Cloudy 62 16.5 61 16 97 97 ESE 3 6 30.04 1017 10 16.0934 0 0
4:55 am 04:55 Cloudy 62 16.5 61 16 97 97 Calm 30.05 1017 10 16.0934 0 0
5:15 am 05:15 Cloudy 62 16.7 61 16.1 96 96 NNE 5 7 30.05 1018 10 16.0934 0 0
5:35 am 05:35 Cloudy 62 16.6 61 16.2 98 98 ENE 5 7 30.07 1018 10 16.0934 0 0
5:55 am 05:55 Cloudy 63 17 62 16.5 97 97 E 6 9 30.04 1017 10 16.0934 0 0
6:15 am 06:15 Cloudy 63 17.2 62 16.5 96 96 ESE 7 11 30.03 1017 10 16.0934 0 0
6:35 am 06:35 Cloudy 63 17.4 62 16.5 94 94 SE 9 15 30.02 1017 10 16.0934 0 0
6:55 am 06:55 Cloudy 63 17.2 62 16.5 96 96 SE 8 13 30.02 1017 10 16.0934 0 0
7:15 am 07:15 Cloudy 63 17.4 62 16.4 94 94 SE 8 13 30.02 1017 10 16.0934 0 0
7:35 am 07:35 Cloudy 64 17.5 61 16.3 93 93 SE 9 15 30.01 1016 10 16.0934 0 0
7:55 am 07:55 Cloudy 64 17.5 61 16.3 93 93 SSE 7 11 30.01 1016 10 16.0934 0 0
8:15 am 08:15 Cloudy 64 17.8 62 16.5 92 92 SSE 5 7 30.02 1016 10 16.0934 0 0
8:35 am 08:35 Cloudy 65 18.2 62 16.7 91 91 SSE 6 9 30 1016 10 16.0934 0 0
8:55 am 08:55 Cloudy 65 18.6 62 16.8 89 89 SSE 7 11 29.99 1016 10 16.0934 0 0
9:15 am 09:15 Cloudy 65 18.6 62 16.7 89 89 SSE 7 11 29.99 1016 10 16.0934 0 0
9:35 am 09:35 Cloudy 65 18.6 62 16.7 89 89 SSE 9 15 29.98 1015 10 16.0934 0 0
9:55 am 09:55 Cloudy 65 18.6 62 16.8 89 89 SSE 8 13 29.97 1015 10 16.0934 0 0
10:15 am 10:15 Cloudy 66 18.8 63 17 89 89 SSE 8 13 29.96 1014 10 16.0934 0 0
10:35 am 10:35 Cloudy 67 19.3 63 17.2 88 88 SSE 9 15 29.94 1014 10 16.0934 0 0
10:55 am 10:55 Cloudy 67 19.7 64 17.6 88 88 SSE 9 15 29.93 1014 10 16.0934 0 0
11:15 am 11:15 Cloudy 68 20 64 17.6 86 86 S 12 19 29.93 1013 10 16.0934 0 0
11:35 am 11:35 Cloudy 69 20.8 64 17.8 83 83 SSE 7 11 29.92 1013 10 16.0934 0 0
11:55 am 11:55 Cloudy 70 21.3 64 18 82 82 SSE 9 15 29.91 1013 10 16.0934 0 0
12:15 pm 12:15 Cloudy 70 21.3 65 18.1 82 82 S 8 13 29.91 1013 10 16.0934 0 0
12:35 pm 12:35 Cloudy 70 21 65 18.1 84 84 S 10 17 29.89 1012 10 16.0934 0 0
12:55 pm 12:55 Cloudy 71 21.4 65 18.4 83 83 S 8 13 29.9 1012 10 16.0934 0 0
1:15 pm 13:15 Cloudy 71 21.6 65 18.5 83 83 S 8 13 29.88 1012 10 16.0934 0 0
1:35 pm 13:35 Cloudy 71 21.8 65 18.5 82 82 SSW 5 7 29.88 1012 10 16.0934 0 0
1:55 pm 13:55 Cloudy 72 22 66 18.7 82 82 SW 3 6 29.87 1012 10 16.0934 0 0
2:15 pm 14:15 Cloudy 73 23 65 18.6 76 76 S 5 7 29.85 1011 10 16.0934 0 0
2:35 pm 14:35 Cloudy 73 23 66 18.9 78 78 SSW 5 7 29.85 1011 10 16.0934 0 0
2:55 pm 14:55 Cloudy 75 23.8 66 18.8 74 74 Calm 29.85 1011 10 16.0934 0 0
3:15 pm 15:15 Cloudy 75 24 67 19.2 75 75 S 6 9 29.83 1010 10 16.0934 0 0
3:35 pm 15:35 Cloudy 75 23.7 66 18.8 74 74 Calm 29.84 1010 10 16.0934 0 0
3:55 pm 15:55 Cloudy 74 23.6 66 19.1 76 76 Calm 29.83 1010 10 16.0934 0 0
4:15 pm 16:15 Mostly Cloudy 75 24 67 19.5 76 76 ESE 7 11 29.82 1010 10 16.0934 0 0
4:35 pm 16:35 Mostly Cloudy 77 24.8 67 19.5 72 72 SSE 3 6 29.81 1009 10 16.0934 0 0
4:55 pm 16:55 Partly Cloudy 76 24.2 67 19.3 74 74 SE 6 9 29.8 1009 10 16.0934 0 0
5:15 pm 17:15 Sunny 77 25 67 19.6 72 72 ESE 5 7 29.8 1009 10 16.0934 0 0
5:35 pm 17:35 Partly Cloudy 76 24.2 67 19.5 75 75 Calm 29.8 1009 10 16.0934 0 0
5:55 pm 17:55 Sunny 76 24.3 68 20.1 77 77 E 5 7 29.8 1009 10 16.0934 0 0
6:15 pm 18:15 Sunny 75 23.9 69 20.5 81 81 E 3 6 29.82 1010 10 16.0934 0 0
6:35 pm 18:35 Sunny 76 24.3 69 20.3 78 78 E 6 9 29.81 1010 10 16.0934 0 0
6:55 pm 18:55 Sunny 76 24.2 68 20.1 78 78 E 5 7 29.81 1010 10 16.0934 0 0
7:15 pm 19:15 Sunny 74 23.5 69 20.7 84 84 ENE 3 6 29.82 1010 10 16.0934 0 0
7:35 pm 19:35 Sunny 72 22.3 69 20.4 89 89 ENE 6 9 29.83 1010 10 16.0934 0 0
7:55 pm 19:55 Sunny 71 21.4 68 20 92 92 E 5 7 29.83 1010 10 16.0934 0 0
8:15 pm 20:15 Clear 69 20.5 67 19.6 95 95 E 6 9 29.83 1010 10 16.0934 0 0
8:35 pm 20:35 Clear 68 20 67 19.6 98 98 E 5 7 29.84 1010 10 16.0934 0 0
8:55 pm 20:55 Clear 66 19 66 18.7 98 98 ESE 7 11 29.86 1011 10 16.0934 0 0
9:15 pm 21:15 Clear 66 18.7 65 18.5 99 99 ENE 3 6 29.86 1011 10 16.0934 0 0
9:35 pm 21:35 Clear 65 18.5 65 18.3 99 99 E 3 6 29.85 1011 10 16.0934 0 0
9:55 pm 21:55 Clear 65 18.1 65 18.1 100 100 Calm 29.84 1011 10 16.0934 0 0
10:15 pm 22:15 Clear 64 18 64 18 100 100 Calm 29.84 1011 7 11.26538 0 0
10:35 pm 22:35 Clear 64 17.9 64 17.9 100 100 Calm 29.86 1011 7 11.26538 0 0
10:55 pm 22:55 Clear with Mist and Fog 63 17.4 63 17.4 100 100 Calm 29.87 1011 4 6.43736 0 0
11:15 pm 23:15 Cloudy with Mist and Fog 61 16.2 61 16.2 100 100 NE 5 7 29.88 1012 0.75 1.207005 0 0
11:35 pm 23:35 Cloudy with Fog 62 16.6 62 16.6 100 100 NE 3 6 29.89 1012 0.25 0.402335 0 0
11:55 pm 23:55 Cloudy with Fog 63 17.2 63 17.2 100 100 NNE 5 7 29.88 1012 0.5 0.80467 0 0

Powered by AerisWeather